Time,TemperatureF,DewpointF,PressureIn,WindDirection,WindDirectionDegrees,WindSpeedMPH,WindSpeedGustMPH,Humidity,HourlyPrecipIn,Conditions,Clouds,dailyrainin,SoftwareType,DateUTC
2013-02-01 00:01:00,52.0,46.0,30.19,NE,35,2.0,8.0,80,0.00,,,0.00,meteohub,2013-02-01 08:01:00,
2013-02-01 00:06:00,51.8,45.9,30.19,NE,35,4.0,6.0,80,0.00,,,0.00,meteohub,2013-02-01 08:06:00,
2013-02-01 00:11:00,51.6,45.7,30.19,NE,41,3.0,6.0,80,0.00,,,0.00,meteohub,2013-02-01 08:11:00,
2013-02-01 00:16:00,52.0,45.7,30.19,NE,52,6.0,6.0,79,0.00,,,0.00,meteohub,2013-02-01 08:16:00,
2013-02-01 00:21:00,52.3,46.0,30.19,NE,56,2.0,7.0,79,0.00,,,0.00,meteohub,2013-02-01 08:21:00,
2013-02-01 00:26:00,52.5,45.9,30.19,ENE,57,2.0,7.0,78,0.00,,,0.00,meteohub,2013-02-01 08:26:00,
2013-02-01 00:31:00,52.9,45.9,30.19,NE,55,1.0,7.0,77,0.00,,,0.00,meteohub,2013-02-01 08:31:00,
2013-02-01 00:36:00,53.1,45.7,30.19,NE,55,1.0,7.0,76,0.00,,,0.00,meteohub,2013-02-01 08:36:00,
2013-02-01 00:41:00,53.2,45.9,30.19,ENE,66,3.0,7.0,76,0.00,,,0.00,meteohub,2013-02-01 08:41:00,
2013-02-01 00:46:00,53.2,45.5,30.19,ENE,67,1.0,6.0,75,0.00,,,0.00,meteohub,2013-02-01 08:46:00,
2013-02-01 00:51:00,53.2,45.5,30.18,ENE,58,2.0,8.0,75,0.00,,,0.00,meteohub,2013-02-01 08:51:00,
2013-02-01 00:56:00,53.1,45.7,30.18,ENE,60,3.0,8.0,76,0.00,,,0.00,meteohub,2013-02-01 08:56:00,
2013-02-01 01:01:00,52.9,45.5,30.18,ENE,60,0.0,8.0,76,0.00,,,0.00,meteohub,2013-02-01 09:01:00,
2013-02-01 01:06:00,52.5,45.5,30.18,ENE,60,0.0,6.0,77,0.00,,,0.00,meteohub,2013-02-01 09:06:00,
2013-02-01 01:11:00,52.3,45.3,30.18,ENE,60,1.0,5.0,77,0.00,,,0.00,meteohub,2013-02-01 09:11:00,
2013-02-01 01:16:00,52.2,45.5,30.18,ENE,60,2.0,4.0,78,0.00,,,0.00,meteohub,2013-02-01 09:16:00,
2013-02-01 01:21:00,52.2,45.9,30.18,NE,55,2.0,4.0,79,0.00,,,0.00,meteohub,2013-02-01 09:21:00,
2013-02-01 01:26:00,52.0,45.7,30.18,NE,54,1.0,7.0,79,0.00,,,0.00,meteohub,2013-02-01 09:26:00,
2013-02-01 01:31:00,51.8,45.5,30.18,NE,53,5.0,7.0,79,0.00,,,0.00,meteohub,2013-02-01 09:31:00,
2013-02-01 01:36:00,51.8,45.9,30.18,NE,54,4.0,7.0,80,0.00,,,0.00,meteohub,2013-02-01 09:36:00,
2013-02-01 01:41:00,51.6,45.7,30.18,NE,56,3.0,7.0,80,0.00,,,0.00,meteohub,2013-02-01 09:41:00,
2013-02-01 01:47:00,51.6,45.7,30.18,NE,55,5.0,7.0,80,0.00,,,0.00,meteohub,2013-02-01 09:47:00,
2013-02-01 01:52:00,51.6,45.7,30.18,NE,55,1.0,6.0,80,0.00,,,0.00,meteohub,2013-02-01 09:52:00,
2013-02-01 01:57:00,51.6,45.7,30.18,NE,56,2.0,6.0,80,0.00,,,0.00,meteohub,2013-02-01 09:57:00,
2013-02-01 02:02:00,51.4,45.5,30.18,East,85,3.0,6.0,80,0.00,,,0.00,meteohub,2013-02-01 10:02:00,
2013-02-01 02:07:00,51.3,45.7,30.18,East,88,2.0,6.0,81,0.00,,,0.00,meteohub,2013-02-01 10:07:00,
2013-02-01 02:12:00,51.1,45.5,30.19,East,96,3.0,6.0,81,0.00,,,0.00,meteohub,2013-02-01 10:12:00,
2013-02-01 02:17:00,50.9,45.3,30.19,East,89,4.0,7.0,81,0.00,,,0.00,meteohub,2013-02-01 10:17:00,
2013-02-01 02:22:00,50.9,45.7,30.19,East,88,0.0,7.0,82,0.00,,,0.00,meteohub,2013-02-01 10:22:00,
2013-02-01 02:27:00,50.9,45.7,30.19,East,86,2.0,7.0,82,0.00,,,0.00,meteohub,2013-02-01 10:27:00,
2013-02-01 02:32:00,50.7,45.5,30.19,East,93,2.0,7.0,82,0.00,,,0.00,meteohub,2013-02-01 10:32:00,
2013-02-01 02:37:00,50.7,45.5,30.19,ENE,78,2.0,7.0,82,0.00,,,0.00,meteohub,2013-02-01 10:37:00,
2013-02-01 02:42:00,50.5,45.3,30.19,East,79,4.0,7.0,82,0.00,,,0.00,meteohub,2013-02-01 10:42:00,
2013-02-01 02:47:00,50.5,45.3,30.18,ENE,77,3.0,6.0,82,0.00,,,0.00,meteohub,2013-02-01 10:47:00,
2013-02-01 02:52:00,50.5,45.3,30.19,ENE,78,0.0,7.0,82,0.00,,,0.00,meteohub,2013-02-01 10:52:00,
2013-02-01 02:57:00,50.5,45.3,30.18,East,79,2.0,7.0,82,0.00,,,0.00,meteohub,2013-02-01 10:57:00,
2013-02-01 03:02:00,50.4,45.3,30.18,ENE,72,2.0,7.0,83,0.00,,,0.00,meteohub,2013-02-01 11:02:00,
2013-02-01 03:07:00,50.2,45.1,30.19,East,82,7.0,7.0,83,0.00,,,0.00,meteohub,2013-02-01 11:07:00,
2013-02-01 03:12:00,49.8,45.1,30.19,East,81,2.0,7.0,84,0.00,,,0.00,meteohub,2013-02-01 11:12:00,
2013-02-01 03:17:00,49.8,45.1,30.19,East,82,7.0,9.0,84,0.00,,,0.00,meteohub,2013-02-01 11:17:00,
2013-02-01 03:22:00,49.6,45.0,30.19,East,81,3.0,9.0,84,0.00,,,0.00,meteohub,2013-02-01 11:22:00,
2013-02-01 03:27:00,49.6,45.0,30.18,East,80,4.0,9.0,84,0.00,,,0.00,meteohub,2013-02-01 11:27:00,
2013-02-01 03:32:00,49.6,45.0,30.18,East,81,2.0,9.0,84,0.00,,,0.00,meteohub,2013-02-01 11:32:00,
2013-02-01 03:37:00,49.6,45.0,30.18,East,92,2.0,9.0,84,0.00,,,0.00,meteohub,2013-02-01 11:37:00,
2013-02-01 03:43:00,49.6,45.0,30.18,East,81,9.0,9.0,84,0.00,,,0.00,meteohub,2013-02-01 11:43:00,
2013-02-01 03:48:00,49.6,45.0,30.18,East,86,3.0,9.0,84,0.00,,,0.00,meteohub,2013-02-01 11:48:00,
2013-02-01 03:53:00,49.6,45.0,30.18,East,89,3.0,9.0,84,0.00,,,0.00,meteohub,2013-02-01 11:53:00,
2013-02-01 03:58:00,49.5,44.8,30.18,East,87,10.0,10.0,84,0.00,,,0.00,meteohub,2013-02-01 11:58:00,
2013-02-01 04:03:00,49.6,45.0,30.19,East,86,5.0,9.0,84,0.00,,,0.00,meteohub,2013-02-01 12:03:00,
2013-02-01 04:08:00,49.5,44.8,30.18,East,84,6.0,10.0,84,0.00,,,0.00,meteohub,2013-02-01 12:08:00,
2013-02-01 04:13:00,49.5,44.8,30.19,East,80,3.0,10.0,84,0.00,,,0.00,meteohub,2013-02-01 12:13:00,
2013-02-01 04:18:00,49.3,44.6,30.18,ENE,75,3.0,11.0,84,0.00,,,0.00,meteohub,2013-02-01 12:18:00,
2013-02-01 04:23:00,49.3,45.0,30.18,ENE,70,4.0,11.0,85,0.00,,,0.00,meteohub,2013-02-01 12:23:00,
2013-02-01 04:28:00,49.1,44.8,30.18,East,84,4.0,11.0,85,0.00,,,0.00,meteohub,2013-02-01 12:28:00,
2013-02-01 04:33:00,49.1,44.8,30.18,ENE,68,3.0,8.0,85,0.00,,,0.00,meteohub,2013-02-01 12:33:00,
2013-02-01 04:38:00,48.9,45.0,30.18,ENE,68,4.0,9.0,86,0.00,,,0.00,meteohub,2013-02-01 12:38:00,
2013-02-01 04:43:00,48.9,45.0,30.18,East,79,7.0,9.0,86,0.00,,,0.00,meteohub,2013-02-01 12:43:00,
2013-02-01 04:48:00,48.9,45.0,30.18,East,86,8.0,9.0,86,0.00,,,0.00,meteohub,2013-02-01 12:48:00,
2013-02-01 04:53:00,48.7,44.8,30.18,ENE,73,5.0,9.0,86,0.00,,,0.00,meteohub,2013-02-01 12:53:00,
2013-02-01 04:59:00,48.7,44.8,30.18,ENE,70,7.0,9.0,86,0.00,,,0.00,meteohub,2013-02-01 12:59:00,
2013-02-01 05:04:00,48.7,45.0,30.18,ENE,77,5.0,9.0,87,0.00,,,0.00,meteohub,2013-02-01 13:04:00,
2013-02-01 05:09:00,48.6,44.8,30.17,ENE,72,3.0,9.0,87,0.00,,,0.00,meteohub,2013-02-01 13:09:00,
2013-02-01 05:14:00,48.6,44.8,30.18,East,90,3.0,10.0,87,0.00,,,0.00,meteohub,2013-02-01 13:14:00,
2013-02-01 05:19:00,48.6,44.8,30.18,ENE,63,8.0,10.0,87,0.00,,,0.00,meteohub,2013-02-01 13:19:00,
2013-02-01 05:24:00,48.6,45.1,30.18,East,84,5.0,11.0,88,0.00,,,0.00,meteohub,2013-02-01 13:24:00,
2013-02-01 05:29:00,48.4,45.0,30.18,East,89,3.0,12.0,88,0.00,,,0.00,meteohub,2013-02-01 13:29:00,
2013-02-01 05:34:00,48.4,45.0,30.18,ENE,77,5.0,12.0,88,0.00,,,0.00,meteohub,2013-02-01 13:34:00,
2013-02-01 05:39:00,48.4,44.8,30.18,East,91,2.0,12.0,87,0.00,,,0.00,meteohub,2013-02-01 13:39:00,
2013-02-01 05:44:00,48.7,44.8,30.18,East,85,4.0,11.0,86,0.00,,,0.00,meteohub,2013-02-01 13:44:00,
2013-02-01 05:49:00,48.9,44.6,30.18,East,88,6.0,16.0,85,0.00,,,0.00,meteohub,2013-02-01 13:49:00,
2013-02-01 05:54:00,48.9,44.6,30.18,East,84,8.0,16.0,85,0.00,,,0.00,meteohub,2013-02-01 13:54:00,
2013-02-01 05:59:00,48.9,44.6,30.18,East,85,6.0,16.0,85,0.00,,,0.00,meteohub,2013-02-01 13:59:00,
2013-02-01 06:04:00,48.9,44.6,30.18,East,94,2.0,10.0,85,0.00,,,0.00,meteohub,2013-02-01 14:04:00,
2013-02-01 06:09:00,48.9,45.0,30.18,East,88,5.0,10.0,86,0.00,,,0.00,meteohub,2013-02-01 14:09:00,
2013-02-01 06:14:00,49.3,45.3,30.18,ENE,75,9.0,10.0,86,0.00,,,0.00,meteohub,2013-02-01 14:14:00,
2013-02-01 06:20:00,49.5,45.5,30.18,East,86,8.0,13.0,86,0.00,,,0.00,meteohub,2013-02-01 14:20:00,
2013-02-01 06:25:00,49.6,45.7,30.18,ENE,64,4.0,13.0,86,0.00,,,0.00,meteohub,2013-02-01 14:25:00,
2013-02-01 06:30:00,49.5,45.5,30.18,East,84,7.0,15.0,86,0.00,,,0.00,meteohub,2013-02-01 14:30:00,
2013-02-01 06:35:00,49.3,45.3,30.18,East,82,9.0,15.0,86,0.00,,,0.00,meteohub,2013-02-01 14:35:00,
2013-02-01 06:40:00,49.3,45.3,30.18,ENE,67,3.0,15.0,86,0.00,,,0.00,meteohub,2013-02-01 14:40:00,
2013-02-01 06:45:00,49.3,45.3,30.18,East,91,1.0,11.0,86,0.00,,,0.00,meteohub,2013-02-01 14:45:00,
2013-02-01 06:50:00,49.3,45.3,30.18,ESE,103,7.0,11.0,86,0.00,,,0.00,meteohub,2013-02-01 14:50:00,
2013-02-01 06:55:00,49.3,45.3,30.18,ESE,114,8.0,11.0,86,0.00,,,0.00,meteohub,2013-02-01 14:55:00,
2013-02-01 07:00:00,48.9,45.0,30.18,SE,125,4.0,14.0,86,0.00,,,0.00,meteohub,2013-02-01 15:00:00,
2013-02-01 07:05:00,48.9,45.0,30.18,ESE,106,9.0,14.0,86,0.00,,,0.00,meteohub,2013-02-01 15:05:00,
2013-02-01 07:10:00,48.9,45.0,30.18,East,79,8.0,11.0,86,0.00,,,0.00,meteohub,2013-02-01 15:10:00,
2013-02-01 07:15:00,49.1,44.8,30.19,ESE,105,4.0,12.0,85,0.00,,,0.00,meteohub,2013-02-01 15:15:00,
2013-02-01 07:20:00,49.5,44.8,30.19,East,92,6.0,13.0,84,0.00,,,0.00,meteohub,2013-02-01 15:20:00,
2013-02-01 07:25:00,49.8,44.8,30.19,East,94,7.0,13.0,83,0.00,,,0.00,meteohub,2013-02-01 15:25:00,
2013-02-01 07:30:00,49.6,44.8,30.18,ENE,68,8.0,13.0,83,0.00,,,0.00,meteohub,2013-02-01 15:30:00,
2013-02-01 07:35:00,48.9,44.6,30.18,East,81,2.0,13.0,85,0.00,,,0.00,meteohub,2013-02-01 15:35:00,
2013-02-01 07:40:00,48.7,44.4,30.18,East,84,6.0,11.0,85,0.00,,,0.00,meteohub,2013-02-01 15:40:00,
2013-02-01 07:45:00,48.7,44.4,30.19,East,82,5.0,11.0,85,0.00,,,0.00,meteohub,2013-02-01 15:45:00,
2013-02-01 07:50:00,48.7,44.4,30.19,East,91,7.0,11.0,85,0.00,,,0.00,meteohub,2013-02-01 15:50:00,
2013-02-01 07:55:00,48.7,44.8,30.19,East,89,9.0,10.0,86,0.00,,,0.00,meteohub,2013-02-01 15:55:00,
2013-02-01 08:01:00,49.3,45.0,30.19,ESE,117,6.0,14.0,85,0.00,,,0.00,meteohub,2013-02-01 16:01:00,
2013-02-01 08:06:00,49.8,45.1,30.19,ESE,103,5.0,16.0,84,0.00,,,0.00,meteohub,2013-02-01 16:06:00,
2013-02-01 08:11:00,50.2,45.5,30.19,East,89,9.0,16.0,84,0.00,,,0.00,meteohub,2013-02-01 16:11:00,
2013-02-01 08:16:00,50.4,45.3,30.19,ESE,103,7.0,13.0,83,0.00,,,0.00,meteohub,2013-02-01 16:16:00,
2013-02-01 08:21:00,50.4,45.7,30.19,East,85,7.0,13.0,84,0.00,,,0.00,meteohub,2013-02-01 16:21:00,
2013-02-01 08:26:00,50.4,45.7,30.19,East,94,8.0,12.0,84,0.00,,,0.00,meteohub,2013-02-01 16:26:00,
2013-02-01 08:31:00,50.5,45.9,30.19,ENE,76,3.0,13.0,84,0.00,,,0.00,meteohub,2013-02-01 16:31:00,
2013-02-01 08:36:00,50.7,45.7,30.19,East,93,5.0,13.0,83,0.00,,,0.00,meteohub,2013-02-01 16:36:00,
2013-02-01 08:41:00,50.9,45.9,30.19,ENE,58,6.0,13.0,83,0.00,,,0.00,meteohub,2013-02-01 16:41:00,
2013-02-01 08:46:00,51.1,46.0,30.19,ENE,74,9.0,13.0,83,0.00,,,0.00,meteohub,2013-02-01 16:46:00,
2013-02-01 08:51:00,51.4,46.2,30.19,SE,124,7.0,13.0,82,0.00,,,0.00,meteohub,2013-02-01 16:51:00,
2013-02-01 08:57:00,51.6,46.2,30.19,ENE,73,6.0,13.0,82,0.00,,,0.00,meteohub,2013-02-01 16:57:00,
2013-02-01 09:02:00,52.0,46.4,30.19,East,97,4.0,13.0,81,0.00,,,0.00,meteohub,2013-02-01 17:02:00,
2013-02-01 09:07:00,52.2,46.6,30.19,ESE,103,7.0,13.0,81,0.00,,,0.00,meteohub,2013-02-01 17:07:00,
2013-02-01 09:12:00,52.3,46.4,30.19,NE,51,10.0,13.0,80,0.00,,,0.00,meteohub,2013-02-01 17:12:00,
2013-02-01 09:17:00,52.7,46.8,30.19,ENE,72,6.0,13.0,80,0.00,,,0.00,meteohub,2013-02-01 17:17:00,
2013-02-01 09:22:00,53.1,47.1,30.19,East,92,4.0,12.0,80,0.00,,,0.00,meteohub,2013-02-01 17:22:00,
2013-02-01 09:27:00,53.2,46.9,30.19,East,92,9.0,12.0,79,0.00,,,0.00,meteohub,2013-02-01 17:27:00,
2013-02-01 09:32:00,53.4,46.8,30.19,ENE,73,3.0,13.0,78,0.00,,,0.00,meteohub,2013-02-01 17:32:00,
2013-02-01 09:37:00,53.6,46.6,30.19,East,86,5.0,13.0,77,0.00,,,0.00,meteohub,2013-02-01 17:37:00,
2013-02-01 09:42:00,54.0,46.9,30.19,ENE,77,5.0,13.0,77,0.00,,,0.00,meteohub,2013-02-01 17:42:00,
2013-02-01 09:47:00,54.1,46.8,30.19,ENE,70,10.0,13.0,76,0.00,,,0.00,meteohub,2013-02-01 17:47:00,
2013-02-01 09:52:00,54.1,46.8,30.19,East,85,3.0,13.0,76,0.00,,,0.00,meteohub,2013-02-01 17:52:00,
2013-02-01 09:57:00,54.3,46.9,30.20,ESE,117,7.0,13.0,76,0.00,,,0.00,meteohub,2013-02-01 17:57:00,
2013-02-01 10:02:00,54.7,46.9,30.20,ESE,115,4.0,13.0,75,0.00,,,0.00,meteohub,2013-02-01 18:02:00,
2013-02-01 10:07:00,54.9,46.8,30.20,East,86,3.0,12.0,74,0.00,,,0.00,meteohub,2013-02-01 18:07:00,
2013-02-01 10:12:00,55.0,46.9,30.19,East,79,12.0,12.0,74,0.00,,,0.00,meteohub,2013-02-01 18:12:00,
2013-02-01 10:17:00,55.0,46.6,30.19,East,86,7.0,13.0,73,0.00,,,0.00,meteohub,2013-02-01 18:17:00,
2013-02-01 10:22:00,55.0,46.6,30.20,East,96,12.0,13.0,73,0.00,,,0.00,meteohub,2013-02-01 18:22:00,
2013-02-01 10:27:00,55.4,46.9,30.20,ESE,120,7.0,14.0,73,0.00,,,0.00,meteohub,2013-02-01 18:27:00,
2013-02-01 10:32:00,55.9,47.1,30.20,East,81,7.0,14.0,72,0.00,,,0.00,meteohub,2013-02-01 18:32:00,
2013-02-01 10:37:00,56.3,46.6,30.20,East,95,4.0,12.0,70,0.00,,,0.00,meteohub,2013-02-01 18:37:00,
2013-02-01 10:42:00,56.5,46.8,30.19,ESE,104,3.0,13.0,70,0.00,,,0.00,meteohub,2013-02-01 18:42:00,
2013-02-01 10:47:00,56.5,46.8,30.20,ENE,77,5.0,13.0,70,0.00,,,0.00,meteohub,2013-02-01 18:47:00,
2013-02-01 10:52:00,56.5,46.4,30.20,East,84,6.0,13.0,69,0.00,,,0.00,meteohub,2013-02-01 18:52:00,
2013-02-01 10:57:00,56.5,46.4,30.21,East,81,7.0,14.0,69,0.00,,,0.00,meteohub,2013-02-01 18:57:00,
2013-02-01 11:02:00,56.7,46.6,30.20,ENE,72,4.0,14.0,69,0.00,,,0.00,meteohub,2013-02-01 19:02:00,
2013-02-01 11:07:00,56.8,46.8,30.20,East,84,2.0,12.0,69,0.00,,,0.00,meteohub,2013-02-01 19:07:00,
2013-02-01 11:12:00,57.0,46.9,30.20,NE,49,9.0,10.0,69,0.00,,,0.00,meteohub,2013-02-01 19:12:00,
2013-02-01 11:17:00,57.0,46.6,30.20,East,91,8.0,11.0,68,0.00,,,0.00,meteohub,2013-02-01 19:17:00,
2013-02-01 11:22:00,57.2,46.8,30.19,East,83,6.0,12.0,68,0.00,,,0.00,meteohub,2013-02-01 19:22:00,
2013-02-01 11:27:00,57.4,46.6,30.19,ENE,78,1.0,12.0,67,0.00,,,0.00,meteohub,2013-02-01 19:27:00,
2013-02-01 11:32:00,57.7,46.4,30.19,East,99,7.0,10.0,66,0.00,,,0.00,meteohub,2013-02-01 19:32:00,
2013-02-01 11:37:00,57.7,46.4,30.19,ENE,60,8.0,12.0,66,0.00,,,0.00,meteohub,2013-02-01 19:37:00,
2013-02-01 11:42:00,57.9,46.6,30.19,East,81,5.0,12.0,66,0.00,,,0.00,meteohub,2013-02-01 19:42:00,
2013-02-01 11:47:00,58.5,46.8,30.18,ENE,72,5.0,12.0,65,0.00,,,0.00,meteohub,2013-02-01 19:47:00,
2013-02-01 11:52:00,58.6,46.9,30.18,ENE,67,6.0,11.0,65,0.00,,,0.00,meteohub,2013-02-01 19:52:00,
2013-02-01 11:57:00,58.8,47.1,30.18,ESE,116,2.0,11.0,65,0.00,,,0.00,meteohub,2013-02-01 19:57:00,
2013-02-01 12:02:00,59.4,47.7,30.17,NE,53,5.0,11.0,65,0.00,,,0.00,meteohub,2013-02-01 20:02:00,
2013-02-01 12:07:00,59.5,47.3,30.17,NNE,26,5.0,11.0,64,0.00,,,0.00,meteohub,2013-02-01 20:07:00,
2013-02-01 12:12:00,59.5,46.9,30.17,ENE,60,4.0,11.0,63,0.00,,,0.00,meteohub,2013-02-01 20:12:00,
2013-02-01 12:17:00,59.5,46.9,30.17,NE,46,2.0,11.0,63,0.00,,,0.00,meteohub,2013-02-01 20:17:00,
2013-02-01 12:22:00,59.7,47.5,30.17,NE,44,2.0,12.0,64,0.00,,,0.00,meteohub,2013-02-01 20:22:00,
2013-02-01 12:27:00,60.1,47.8,30.16,NNE,26,5.0,12.0,64,0.00,,,0.00,meteohub,2013-02-01 20:27:00,
2013-02-01 12:32:00,60.4,47.3,30.16,East,86,4.0,12.0,62,0.00,,,0.00,meteohub,2013-02-01 20:32:00,
2013-02-01 12:37:00,60.4,47.8,30.16,ENE,61,6.0,12.0,63,0.00,,,0.00,meteohub,2013-02-01 20:37:00,
2013-02-01 12:42:00,60.6,47.5,30.15,NE,37,4.0,11.0,62,0.00,,,0.00,meteohub,2013-02-01 20:42:00,
2013-02-01 12:47:00,60.8,47.7,30.16,NE,37,6.0,11.0,62,0.00,,,0.00,meteohub,2013-02-01 20:47:00,
2013-02-01 12:52:00,60.8,47.3,30.15,ENE,73,6.0,11.0,61,0.00,,,0.00,meteohub,2013-02-01 20:52:00,
2013-02-01 12:57:00,61.3,47.8,30.15,NE,56,5.0,11.0,61,0.00,,,0.00,meteohub,2013-02-01 20:57:00,
2013-02-01 13:02:00,61.7,47.3,30.15,NE,45,5.0,10.0,59,0.00,,,0.00,meteohub,2013-02-01 21:02:00,
2013-02-01 13:07:00,61.3,46.9,30.15,NE,35,8.0,11.0,59,0.00,,,0.00,meteohub,2013-02-01 21:07:00,
2013-02-01 13:12:00,61.7,47.3,30.15,NE,41,4.0,11.0,59,0.00,,,0.00,meteohub,2013-02-01 21:12:00,
2013-02-01 13:17:00,61.9,47.5,30.14,NNE,33,5.0,11.0,59,0.00,,,0.00,meteohub,2013-02-01 21:17:00,
2013-02-01 13:22:00,62.1,47.1,30.14,ENE,72,4.0,10.0,58,0.00,,,0.00,meteohub,2013-02-01 21:22:00,
2013-02-01 13:27:00,62.2,47.3,30.14,ENE,60,3.0,10.0,58,0.00,,,0.00,meteohub,2013-02-01 21:27:00,
2013-02-01 13:32:00,62.2,46.8,30.14,ENE,63,6.0,10.0,57,0.00,,,0.00,meteohub,2013-02-01 21:32:00,
2013-02-01 13:37:00,62.2,46.8,30.14,NE,42,2.0,9.0,57,0.00,,,0.00,meteohub,2013-02-01 21:37:00,
2013-02-01 13:42:00,62.4,46.9,30.14,ENE,57,4.0,9.0,57,0.00,,,0.00,meteohub,2013-02-01 21:42:00,
2013-02-01 13:47:00,62.8,46.9,30.14,ENE,72,0.0,9.0,56,0.00,,,0.00,meteohub,2013-02-01 21:47:00,
2013-02-01 13:52:00,63.0,46.6,30.14,NE,39,5.0,9.0,55,0.00,,,0.00,meteohub,2013-02-01 21:52:00,
2013-02-01 13:57:00,63.0,46.9,30.14,ENE,59,0.0,9.0,56,0.00,,,0.00,meteohub,2013-02-01 21:57:00,
2013-02-01 14:03:00,63.1,46.8,30.13,NNE,13,5.0,9.0,55,0.00,,,0.00,meteohub,2013-02-01 22:03:00,
2013-02-01 14:08:00,63.5,47.1,30.13,NNE,17,2.0,9.0,55,0.00,,,0.00,meteohub,2013-02-01 22:08:00,
2013-02-01 14:13:00,63.5,46.6,30.14,NE,37,1.0,8.0,54,0.00,,,0.00,meteohub,2013-02-01 22:13:00,
2013-02-01 14:18:00,63.3,46.9,30.14,North,358,2.0,8.0,55,0.00,,,0.00,meteohub,2013-02-01 22:18:00,
2013-02-01 14:23:00,63.3,46.9,30.14,NE,48,0.0,7.0,55,0.00,,,0.00,meteohub,2013-02-01 22:23:00,
2013-02-01 14:28:00,63.3,46.9,30.14,NE,45,6.0,7.0,55,0.00,,,0.00,meteohub,2013-02-01 22:28:00,
2013-02-01 14:33:00,63.1,46.8,30.14,NNE,15,5.0,8.0,55,0.00,,,0.00,meteohub,2013-02-01 22:33:00,
2013-02-01 14:38:00,63.3,46.4,30.13,North,11,5.0,8.0,54,0.00,,,0.00,meteohub,2013-02-01 22:38:00,
2013-02-01 14:43:00,63.0,46.0,30.13,NNE,25,3.0,11.0,54,0.00,,,0.00,meteohub,2013-02-01 22:43:00,
2013-02-01 14:48:00,62.8,46.4,30.14,North,1,5.0,11.0,55,0.00,,,0.00,meteohub,2013-02-01 22:48:00,
2013-02-01 14:53:00,63.1,46.8,30.13,North,354,4.0,11.0,55,0.00,,,0.00,meteohub,2013-02-01 22:53:00,
2013-02-01 14:58:00,63.1,46.2,30.13,NNE,24,2.0,10.0,54,0.00,,,0.00,meteohub,2013-02-01 22:58:00,
2013-02-01 15:03:00,63.0,46.6,30.14,NNE,18,6.0,10.0,55,0.00,,,0.00,meteohub,2013-02-01 23:03:00,
2013-02-01 15:08:00,62.8,46.4,30.14,NNE,25,7.0,10.0,55,0.00,,,0.00,meteohub,2013-02-01 23:08:00,
2013-02-01 15:13:00,62.8,46.9,30.14,NNE,15,7.0,11.0,56,0.00,,,0.00,meteohub,2013-02-01 23:13:00,
2013-02-01 15:18:00,63.0,46.6,30.14,NNE,13,3.0,11.0,55,0.00,,,0.00,meteohub,2013-02-01 23:18:00,
2013-02-01 15:23:00,63.0,46.6,30.13,NNE,25,4.0,11.0,55,0.00,,,0.00,meteohub,2013-02-01 23:23:00,
2013-02-01 15:28:00,63.0,46.6,30.14,North,5,2.0,8.0,55,0.00,,,0.00,meteohub,2013-02-01 23:28:00,
2013-02-01 15:33:00,63.0,46.6,30.14,NNE,17,4.0,9.0,55,0.00,,,0.00,meteohub,2013-02-01 23:33:00,
2013-02-01 15:38:00,62.8,46.4,30.14,NNE,27,3.0,9.0,55,0.00,,,0.00,meteohub,2013-02-01 23:38:00,
2013-02-01 15:43:00,62.8,46.9,30.13,NNE,19,0.0,9.0,56,0.00,,,0.00,meteohub,2013-02-01 23:43:00,
2013-02-01 15:48:00,62.8,46.9,30.13,NNE,26,4.0,9.0,56,0.00,,,0.00,meteohub,2013-02-01 23:48:00,
2013-02-01 15:54:00,62.8,46.9,30.13,NNE,23,2.0,9.0,56,0.00,,,0.00,meteohub,2013-02-01 23:54:00,
2013-02-01 15:59:00,63.0,46.9,30.13,NNE,25,1.0,9.0,56,0.00,,,0.00,meteohub,2013-02-01 23:59:00,
2013-02-01 16:04:00,63.0,46.9,30.13,NNE,25,1.0,9.0,56,0.00,,,0.00,meteohub,2013-02-02 00:04:00,
2013-02-01 16:09:00,63.0,46.9,30.13,NNE,25,1.0,8.0,56,0.00,,,0.00,meteohub,2013-02-02 00:09:00,
2013-02-01 16:14:00,63.0,46.9,30.14,NNE,26,3.0,5.0,56,0.00,,,0.00,meteohub,2013-02-02 00:14:00,
2013-02-01 16:19:00,63.0,46.9,30.14,NNE,26,0.0,5.0,56,0.00,,,0.00,meteohub,2013-02-02 00:19:00,
2013-02-01 16:24:00,63.0,46.9,30.14,NNE,26,0.0,5.0,56,0.00,,,0.00,meteohub,2013-02-02 00:24:00,
2013-02-01 16:29:00,63.0,46.9,30.14,NNE,26,2.0,5.0,56,0.00,,,0.00,meteohub,2013-02-02 00:29:00,
2013-02-01 16:34:00,62.8,46.9,30.14,NNE,26,0.0,2.0,56,0.00,,,0.00,meteohub,2013-02-02 00:34:00,
2013-02-01 16:39:00,62.6,47.1,30.14,NNE,26,1.0,4.0,57,0.00,,,0.00,meteohub,2013-02-02 00:39:00,
2013-02-01 16:44:00,62.4,46.9,30.14,NNE,26,2.0,4.0,57,0.00,,,0.00,meteohub,2013-02-02 00:44:00,
2013-02-01 16:49:00,62.4,46.9,30.14,NNE,26,0.0,4.0,57,0.00,,,0.00,meteohub,2013-02-02 00:49:00,
2013-02-01 16:54:00,62.2,46.8,30.14,NNE,26,0.0,4.0,57,0.00,,,0.00,meteohub,2013-02-02 00:54:00,
2013-02-01 16:59:00,62.1,46.6,30.15,NNE,26,0.0,3.0,57,0.00,,,0.00,meteohub,2013-02-02 00:59:00,
2013-02-01 17:04:00,62.1,47.1,30.15,North,349,3.0,3.0,58,0.00,,,0.00,meteohub,2013-02-02 01:04:00,
2013-02-01 17:09:00,61.5,47.1,30.15,WSW,258,3.0,3.0,59,0.00,,,0.00,meteohub,2013-02-02 01:09:00,
2013-02-01 17:14:00,60.3,46.8,30.16,WSW,253,4.0,8.0,61,0.00,,,0.00,meteohub,2013-02-02 01:14:00,
2013-02-01 17:19:00,58.6,46.9,30.16,West,259,4.0,8.0,65,0.00,,,0.00,meteohub,2013-02-02 01:19:00,
2013-02-01 17:24:00,57.7,47.3,30.16,West,259,0.0,8.0,68,0.00,,,0.00,meteohub,2013-02-02 01:24:00,
2013-02-01 17:29:00,57.0,46.9,30.17,WSW,252,6.0,8.0,69,0.00,,,0.00,meteohub,2013-02-02 01:29:00,
2013-02-01 17:34:00,56.1,46.8,30.17,WSW,251,2.0,5.0,71,0.00,,,0.00,meteohub,2013-02-02 01:34:00,
2013-02-01 17:40:00,55.8,47.3,30.17,WSW,251,0.0,8.0,73,0.00,,,0.00,meteohub,2013-02-02 01:40:00,
2013-02-01 17:45:00,55.6,47.1,30.17,WSW,251,0.0,8.0,73,0.00,,,0.00,meteohub,2013-02-02 01:45:00,
2013-02-01 17:50:00,55.2,46.8,30.17,WSW,251,0.0,5.0,73,0.00,,,0.00,meteohub,2013-02-02 01:50:00,
2013-02-01 17:55:00,55.2,46.8,30.17,WSW,251,0.0,2.0,73,0.00,,,0.00,meteohub,2013-02-02 01:55:00,
2013-02-01 18:00:00,55.2,46.8,30.17,WSW,251,0.0,2.0,73,0.00,,,0.00,meteohub,2013-02-02 02:00:00,
2013-02-01 18:05:00,55.2,46.4,30.17,WSW,250,1.0,3.0,72,0.00,,,0.00,meteohub,2013-02-02 02:05:00,
2013-02-01 18:10:00,55.6,46.4,30.17,WSW,250,0.0,4.0,71,0.00,,,0.00,meteohub,2013-02-02 02:10:00,
2013-02-01 18:15:00,55.6,46.8,30.17,WSW,250,0.0,4.0,72,0.00,,,0.00,meteohub,2013-02-02 02:15:00,
2013-02-01 18:20:00,55.2,46.8,30.18,WSW,251,0.0,3.0,73,0.00,,,0.00,meteohub,2013-02-02 02:20:00,
2013-02-01 18:25:00,54.9,46.4,30.18,WSW,251,1.0,3.0,73,0.00,,,0.00,meteohub,2013-02-02 02:25:00,
2013-02-01 18:30:00,54.7,46.6,30.18,WSW,251,0.0,3.0,74,0.00,,,0.00,meteohub,2013-02-02 02:30:00,
2013-02-01 18:35:00,54.3,46.6,30.18,WSW,251,0.0,3.0,75,0.00,,,0.00,meteohub,2013-02-02 02:35:00,
2013-02-01 18:40:00,54.1,46.4,30.18,WSW,251,0.0,1.0,75,0.00,,,0.00,meteohub,2013-02-02 02:40:00,
2013-02-01 18:45:00,54.1,46.4,30.18,WSW,251,0.0,0.0,75,0.00,,,0.00,meteohub,2013-02-02 02:45:00,
2013-02-01 18:51:00,54.0,46.2,30.19,WSW,251,2.0,3.0,75,0.00,,,0.00,meteohub,2013-02-02 02:51:00,
2013-02-01 18:56:00,53.8,46.4,30.19,WSW,251,0.0,3.0,76,0.00,,,0.00,meteohub,2013-02-02 02:56:00,
2013-02-01 19:01:00,53.4,46.4,30.19,WSW,251,0.0,3.0,77,0.00,,,0.00,meteohub,2013-02-02 03:01:00,
2013-02-01 19:06:00,53.2,46.6,30.19,WSW,251,0.0,3.0,78,0.00,,,0.00,meteohub,2013-02-02 03:06:00,
2013-02-01 19:11:00,53.2,46.6,30.19,WSW,251,2.0,2.0,78,0.00,,,0.00,meteohub,2013-02-02 03:11:00,
2013-02-01 19:16:00,53.2,46.2,30.19,WSW,251,2.0,3.0,77,0.00,,,0.00,meteohub,2013-02-02 03:16:00,
2013-02-01 19:21:00,53.4,46.4,30.19,WSW,251,1.0,3.0,77,0.00,,,0.00,meteohub,2013-02-02 03:21:00,
2013-02-01 19:26:00,53.6,46.2,30.18,WSW,252,0.0,3.0,76,0.00,,,0.00,meteohub,2013-02-02 03:26:00,
2013-02-01 19:31:00,53.8,46.0,30.18,WSW,252,2.0,3.0,75,0.00,,,0.00,meteohub,2013-02-02 03:31:00,
2013-02-01 19:36:00,54.1,46.4,30.18,WSW,251,1.0,3.0,75,0.00,,,0.00,meteohub,2013-02-02 03:36:00,
2013-02-01 19:41:00,54.1,46.0,30.18,WSW,252,2.0,3.0,74,0.00,,,0.00,meteohub,2013-02-02 03:41:00,
2013-02-01 19:46:00,54.1,46.4,30.18,WSW,251,2.0,3.0,75,0.00,,,0.00,meteohub,2013-02-02 03:46:00,
2013-02-01 19:51:00,54.0,46.2,30.18,WSW,251,1.0,3.0,75,0.00,,,0.00,meteohub,2013-02-02 03:51:00,
2013-02-01 19:57:00,53.8,46.0,30.18,WSW,252,2.0,3.0,75,0.00,,,0.00,meteohub,2013-02-02 03:57:00,
2013-02-01 20:02:00,53.6,45.9,30.19,WSW,252,0.0,3.0,75,0.00,,,0.00,meteohub,2013-02-02 04:02:00,
2013-02-01 20:07:00,53.4,45.7,30.19,WSW,252,0.0,3.0,75,0.00,,,0.00,meteohub,2013-02-02 04:07:00,
2013-02-01 20:12:00,53.4,45.7,30.19,WSW,252,0.0,3.0,75,0.00,,,0.00,meteohub,2013-02-02 04:12:00,
2013-02-01 20:17:00,53.4,45.3,30.19,WSW,252,0.0,0.0,74,0.00,,,0.00,meteohub,2013-02-02 04:17:00,
2013-02-01 20:22:00,53.8,45.7,30.19,WSW,252,0.0,0.0,74,0.00,,,0.00,meteohub,2013-02-02 04:22:00,
2013-02-01 20:27:00,53.8,45.7,30.19,WSW,252,0.0,0.0,74,0.00,,,0.00,meteohub,2013-02-02 04:27:00,
2013-02-01 20:32:00,54.0,45.9,30.19,WSW,252,0.0,0.0,74,0.00,,,0.00,meteohub,2013-02-02 04:32:00,
2013-02-01 20:37:00,54.0,45.9,30.19,WSW,252,0.0,0.0,74,0.00,,,0.00,meteohub,2013-02-02 04:37:00,
2013-02-01 20:42:00,54.0,46.6,30.19,WSW,252,0.0,0.0,76,0.00,,,0.00,meteohub,2013-02-02 04:42:00,
2013-02-01 20:47:00,53.2,47.3,30.20,WSW,252,1.0,2.0,80,0.00,,,0.00,meteohub,2013-02-02 04:47:00,
2013-02-01 20:52:00,52.3,46.9,30.21,WSW,252,1.0,3.0,82,0.00,,,0.00,meteohub,2013-02-02 04:52:00,
2013-02-01 20:57:00,51.4,46.8,30.21,WSW,252,2.0,3.0,84,0.00,,,0.00,meteohub,2013-02-02 04:57:00,
2013-02-01 21:00:00,50.5,46.2,30.21,WSW,252,2.0,4.0,85,0.00,,,0.00,meteohub,2013-02-02 05:00:00,
2013-02-01 21:01:00,50.4,46.0,30.21,WSW,251,1.0,4.0,85,0.00,,,0.00,meteohub,2013-02-02 05:01:00,
2013-02-01 21:05:00,49.5,45.7,30.21,WSW,252,0.0,4.0,87,0.00,,,0.00,meteohub,2013-02-02 05:05:00,
2013-02-01 21:10:00,48.7,45.3,30.21,WSW,251,0.0,4.0,88,0.00,,,0.00,meteohub,2013-02-02 05:10:00,
2013-02-01 21:15:00,48.6,45.7,30.21,WSW,251,0.0,4.0,90,0.00,,,0.00,meteohub,2013-02-02 05:15:00,
2013-02-01 21:20:00,48.4,45.5,30.21,WSW,251,0.0,0.0,90,0.00,,,0.00,meteohub,2013-02-02 05:20:00,
2013-02-01 21:25:00,48.0,45.5,30.20,WSW,252,1.0,2.0,91,0.00,,,0.00,meteohub,2013-02-02 05:25:00,
2013-02-01 21:30:00,48.4,46.2,30.20,WSW,254,0.0,4.0,92,0.00,,,0.00,meteohub,2013-02-02 05:30:00,
2013-02-01 21:35:00,48.4,46.2,30.21,West,262,1.0,5.0,92,0.00,,,0.00,meteohub,2013-02-02 05:35:00,
2013-02-01 21:40:00,48.2,46.0,30.21,West,263,2.0,5.0,92,0.00,,,0.00,meteohub,2013-02-02 05:40:00,
2013-02-01 21:45:00,48.2,46.2,30.21,West,263,0.0,5.0,93,0.00,,,0.00,meteohub,2013-02-02 05:45:00,
2013-02-01 21:50:00,48.0,46.0,30.21,West,263,1.0,4.0,93,0.00,,,0.00,meteohub,2013-02-02 05:50:00,
2013-02-01 21:55:00,47.8,45.9,30.21,West,263,0.0,4.0,93,0.00,,,0.00,meteohub,2013-02-02 05:55:00,
2013-02-01 22:00:00,47.8,45.9,30.22,West,263,0.0,3.0,93,0.00,,,0.00,meteohub,2013-02-02 06:00:00,
2013-02-01 22:05:00,47.7,46.0,30.22,West,263,1.0,2.0,94,0.00,,,0.00,meteohub,2013-02-02 06:05:00,
2013-02-01 22:10:00,47.8,46.2,30.22,West,263,0.0,2.0,94,0.00,,,0.00,meteohub,2013-02-02 06:10:00,
2013-02-01 22:15:00,47.7,46.0,30.22,West,263,0.0,1.0,94,0.00,,,0.00,meteohub,2013-02-02 06:15:00,
2013-02-01 22:20:00,47.8,46.2,30.22,West,263,0.0,1.0,94,0.00,,,0.00,meteohub,2013-02-02 06:20:00,
2013-02-01 22:25:00,47.8,46.2,30.22,West,263,0.0,2.0,94,0.00,,,0.00,meteohub,2013-02-02 06:25:00,
2013-02-01 22:30:00,47.8,46.2,30.22,West,263,2.0,2.0,94,0.00,,,0.00,meteohub,2013-02-02 06:30:00,
2013-02-01 22:35:00,48.0,46.6,30.23,West,263,0.0,5.0,95,0.00,,,0.00,meteohub,2013-02-02 06:35:00,
2013-02-01 22:40:00,48.4,46.9,30.23,West,263,0.0,5.0,95,0.00,,,0.00,meteohub,2013-02-02 06:40:00,
2013-02-01 22:46:00,48.4,46.9,30.23,West,263,0.0,5.0,95,0.00,,,0.00,meteohub,2013-02-02 06:46:00,
2013-02-01 22:51:00,48.4,46.9,30.23,West,263,1.0,3.0,95,0.00,,,0.00,meteohub,2013-02-02 06:51:00,
2013-02-01 22:56:00,48.0,46.6,30.23,West,263,0.0,3.0,95,0.00,,,0.00,meteohub,2013-02-02 06:56:00,
2013-02-01 23:01:00,48.0,46.6,30.23,West,263,1.0,3.0,95,0.00,,,0.00,meteohub,2013-02-02 07:01:00,
2013-02-01 23:06:00,48.0,46.6,30.23,West,263,0.0,5.0,95,0.00,,,0.00,meteohub,2013-02-02 07:06:00,
2013-02-01 23:11:00,48.0,46.6,30.23,West,263,1.0,5.0,95,0.00,,,0.00,meteohub,2013-02-02 07:11:00,
2013-02-01 23:16:00,48.0,46.6,30.23,West,263,3.0,5.0,95,0.00,,,0.00,meteohub,2013-02-02 07:16:00,
2013-02-01 23:21:00,47.8,46.4,30.24,West,263,1.0,4.0,95,0.00,,,0.00,meteohub,2013-02-02 07:21:00,
2013-02-01 23:26:00,48.0,46.6,30.24,West,263,3.0,5.0,95,0.00,,,0.00,meteohub,2013-02-02 07:26:00,
2013-02-01 23:31:00,48.0,46.6,30.24,WSW,258,3.0,6.0,95,0.00,,,0.00,meteohub,2013-02-02 07:31:00,
2013-02-01 23:36:00,48.0,46.6,30.24,WSW,258,4.0,6.0,95,0.00,,,0.00,meteohub,2013-02-02 07:36:00,
2013-02-01 23:41:00,48.0,46.6,30.24,WSW,257,3.0,6.0,95,0.00,,,0.00,meteohub,2013-02-02 07:41:00,
2013-02-01 23:46:00,48.0,46.6,30.24,WSW,242,3.0,6.0,95,0.00,,,0.00,meteohub,2013-02-02 07:46:00,
2013-02-01 23:51:00,47.8,46.4,30.24,WSW,243,4.0,9.0,95,0.00,,,0.00,meteohub,2013-02-02 07:51:00,
2013-02-01 23:56:00,47.7,46.2,30.24,WSW,249,6.0,10.0,95,0.00,,,0.00,meteohub,2013-02-02 07:56:00,